TimeCDT,TemperatureF,Dew PointF,Humidity,Sea Level PressureIn,VisibilityMPH,Wind Direction,Wind SpeedMPH,Gust SpeedMPH,PrecipitationIn,Events,Conditions,WindDirDegrees,DateUTC
12:55 AM,69.3,62.4,79,30.16,10.0,ESE,4.6,-,N/A,,Clear,110,2012-10-14 05:55:00
1:55 AM,68.5,61.0,77,30.15,10.0,East,5.8,-,N/A,,Clear,90,2012-10-14 06:55:00
2:55 AM,67.5,61.3,81,30.13,10.0,Variable,6.9,-,N/A,,Clear,0,2012-10-14 07:55:00
3:55 AM,67.1,62.6,85,30.12,10.0,East,6.9,-,N/A,,Clear,100,2012-10-14 08:55:00
4:55 AM,66.6,63.0,88,30.12,10.0,East,6.9,-,N/A,,Clear,90,2012-10-14 09:55:00
5:55 AM,66.0,63.1,90,30.13,10.0,East,8.1,-,N/A,,Clear,90,2012-10-14 10:55:00
6:55 AM,65.8,63.5,92,30.13,9.0,East,4.6,-,N/A,,Scattered Clouds,100,2012-10-14 11:55:00
7:55 AM,68.2,64.4,88,30.14,10.0,East,8.1,-,N/A,,Mostly Cloudy,100,2012-10-14 12:55:00
8:55 AM,73.0,64.9,76,30.15,10.0,East,4.6,-,N/A,,Mostly Cloudy,100,2012-10-14 13:55:00
9:55 AM,77.9,66.2,67,30.16,10.0,ESE,8.1,-,N/A,,Mostly Cloudy,120,2012-10-14 14:55:00
10:55 AM,79.9,66.6,64,30.18,10.0,SSE,6.9,-,N/A,,Mostly Cloudy,160,2012-10-14 15:55:00
11:28 AM,80.6,66.2,61,30.17,10.0,South,8.1,-,N/A,,Scattered Clouds,180,2012-10-14 16:28:00
11:55 AM,80.6,66.7,63,30.16,10.0,Variable,4.6,-,N/A,,Partly Cloudy,0,2012-10-14 16:55:00
12:55 PM,83.7,65.3,54,30.14,10.0,South,5.8,-,N/A,,Partly Cloudy,180,2012-10-14 17:55:00
1:55 PM,83.3,65.5,55,30.10,10.0,SSE,4.6,-,N/A,,Clear,160,2012-10-14 18:55:00
2:55 PM,84.2,65.5,53,30.07,10.0,Variable,5.8,-,N/A,,Mostly Cloudy,0,2012-10-14 19:55:00
3:55 PM,82.9,66.9,58,30.06,10.0,South,6.9,-,N/A,,Partly Cloudy,170,2012-10-14 20:55:00
4:55 PM,82.0,67.1,60,30.05,10.0,South,9.2,-,N/A,,Clear,170,2012-10-14 21:55:00
5:55 PM,78.3,67.6,70,30.03,10.0,South,9.2,-,N/A,,Clear,170,2012-10-14 22:55:00
6:55 PM,73.6,67.8,82,30.03,10.0,South,5.8,-,N/A,,Clear,170,2012-10-14 23:55:00
7:55 PM,72.7,68.9,88,30.02,10.0,South,4.6,-,N/A,,Clear,170,2012-10-15 00:55:00
8:55 PM,70.2,67.8,92,30.04,10.0,Calm,Calm,-,N/A,,Partly Cloudy,0,2012-10-15 01:55:00
9:55 PM,67.1,66.2,97,30.04,9.0,Calm,Calm,-,N/A,,Clear,0,2012-10-15 02:55:00
10:15 PM,66.2,66.2,100,30.04,2.5,Calm,Calm,-,N/A,,Partly Cloudy,0,2012-10-15 03:15:00
10:16 PM,66.2,66.2,100,30.04,2.0,Calm,Calm,-,N/A,,Partly Cloudy,0,2012-10-15 03:16:00
10:18 PM,66.2,66.2,100,30.04,1.8,Calm,Calm,-,N/A,,Partly Cloudy,0,2012-10-15 03:18:00
10:23 PM,66.2,66.2,100,30.04,2.0,Calm,Calm,-,N/A,,Scattered Clouds,0,2012-10-15 03:23:00
10:24 PM,66.2,66.2,100,30.04,2.5,Calm,Calm,-,N/A,,Scattered Clouds,0,2012-10-15 03:24:00
10:25 PM,66.2,66.2,100,30.04,3.0,Calm,Calm,-,N/A,,Scattered Clouds,0,2012-10-15 03:25:00
10:55 PM,66.2,65.3,97,30.04,10.0,Calm,Calm,-,N/A,,Scattered Clouds,0,2012-10-15 03:55:00
11:55 PM,65.5,64.8,98,30.02,10.0,South,3.5,-,N/A,,Clear,170,2012-10-15 04:55:00